Regional Weather Roundup
Issued by NWS Sioux Falls, SD

Home | Current Version | Previous Version | Graphics & Text | Print | Product List | Glossary Off
Versions: 1 2 3 4 5 6 7 8 9 10 11 12 13 14 15 16 17 18 19 20 21 22 23 24 25 26 27 28 29 30 31 32 33 34 35 36 37 38 39 40 41 42 43 44 45 46 47 48 49 50

000
ASUS43 KFSD 061302
RWRFSD

WEATHER ROUNDUP FOR SE SOUTH DAKOTA/SW MINNESOTA/NW IOWA
NATIONAL WEATHER SERVICE SIOUX FALLS SD
700 AM CST TUE DEC 06 2016

NOTE: "FAIR" INDICATES FEW OR NO CLOUDS BELOW 12,000 FEET WITH NO
SIGNIFICANT WEATHER AND OR OBSTRUCTIONS TO VISIBILITY.


SDZ038>040-050-052>070-061400-
SOUTHEAST SOUTH DAKOTA

CITY           SKY/WX    TMP DP  RH WIND       PRES   REMARKS
CHAMBERLAIN    NOT AVBL
HURON          MIX PCPN  15   7  70 W25G39    29.85R WCI  -4
MADISON        LGT RAIN  14   9  79 W29G39    29.79R WCI  -7
MITCHELL       CLOUDY    17   9  70 W24G33    29.90S WCI  -1
SIOUX FALLS    NOT AVBL
WINNER         FAIR      15   5  64 NW20G31   29.95R WCI  -2
YANKTON        CLEAR     18   9  68 W24       29.92R WCI   0
$$

MNZ071-072-080-081-089-090-097-098-061400-
SOUTHWEST MINNESOTA

CITY           SKY/WX    TMP DP  RH WIND       PRES   REMARKS
FAIRMONT       PTCLDY    18  12  77 W23       29.82R WCI   0
JACKSON        MOCLDY    16  10  79 W14G22    29.81R WCI   1
LUVERNE        FLURRIES  18  10  73 W23G30    29.83S WCI   0
MARSHALL       FLURRIES  16   9  74 W29       29.76S WCI  -4
MONTEVIDEO     CLOUDY    19  10  68 W18G32    29.72R WCI   4
PIPESTONE      CLOUDY    16   9  73 W29G37    29.77S WCI  -4
REDWOOD FALLS  CLOUDY    19   8  62 W24G36    29.76F WCI   2
TRACY          FLURRIES  18  12  76 W14G28    29.77S WCI   4
WINDOM         MOCLDY    16  10  79 W24G30    29.78S WCI  -3
WORTHINGTON    FLURRIES  15  10  80 W36G41    29.76F WCI  -7
$$

IAZ001>003-012>014-020>022-031-032-NEZ013-014-SDZ071-061400-
NORTHWEST IOWA

CITY           SKY/WX    TMP DP  RH WIND       PRES   REMARKS
CHEROKEE       CLEAR     18  12  77 W10G16    29.91R WCI   6
DENISON        CLEAR     19  12  73 W16       29.92R WCI   5
ESTHERVILLE    CLEAR     17  11  77 W22G32    29.82R WCI   0
LE MARS        PTCLDY    18  10  73 W9        29.93R WCI   6
ORANGE CITY    CLEAR     18  12  79 W23       29.87R WCI   0
SHELDON        CLOUDY    18  12  79 W22G28    29.84S WCI   0
SIOUX CITY     CLEAR     19  11  70 W9        29.95R WCI   8
SPENCER        MOCLDY    18  12  77 W28G35    29.86R WCI  -1
STORM LAKE     CLEAR     18  10  73 W21G28    29.89R WCI   1
$$

ABBREVIATIONS USED IN REMARKS
   TC - TEMPERATURE IN CELSIUS
  WCI - WIND CHILL INDEX
   HX - HEAT INDEX
  VSB - VISIBILITY





USA.gov is the U.S. government's official web portal to all federal, state and local government web resources and services.